Location: Mexico
(19.4000°N, 99.1500°W)
Time: 10:13:28
(UTC-06:00)

ISS - Pass Details

Date: 14 August 2017
Orbit: 401 x 408 km, 51.6° (Epoch: 19 August)

Event Time Altitude Azimuth Distance (km) Brightness Sun altitude
Rises 20:05:03 0° 339° (NNW) 2,302 0.6 -14.3°
Reaches altitude 10° 20:07:30 10° 358° (N) 1,443 -0.7 -14.8°
Maximum altitude 20:09:57 20° 47° (NE) 999 -2.1 -15.4°
Enters shadow 20:10:13 19° 54° (NE) 1,005 -2.2 -15.4°
